{"data":{"norad_id":64952,"epoch":"2026-09-20T14:27:11.019168Z","epoch_age_seconds":115339,"freshness":"FRESH","line1":"1 64952U 25158W   26263.60221087  .00013670  00000+0  42499-3 0  9999","line2":"2 64952  97.2839 121.9242 0001964  90.7068 269.4400 15.33444433 64725","mean_motion":15.33444433,"eccentricity":0.0001964,"inclination_deg":97.2839,"raan_deg":121.9242,"arg_perigee_deg":90.7068,"mean_anomaly_deg":269.44,"bstar":0.00042499,"rev_number":6472,"period_min":93.9062393792,"perigee_km":464.20076235414,"apogee_km":466.88896058933,"semimajor_km":6843.6818614717,"source":"CELESTRAK","updated_at":"2026-09-21T09:00:35.490404Z"}}